www.pogodaiklimat.ru
ПОГОДА в Чикаго / Уокеган
Время
и дата
05:07 03.12
05:55 03.12
06:55 03.12
07:55 03.12
08:55 03.12
09:55 03.12
10:55 03.12
11:55 03.12
12:55 03.12
13:55 03.12
14:55 03.12
15:55 03.12
16:55 03.12
17:55 03.12
18:55 03.12
19:55 03.12
20:55 03.12
21:55 03.12
22:55 03.12
23:55 03.12
00:55 04.12
01:55 04.12
02:55 04.12
03:55 04.12
04:55 04.12
05:55 04.12
06:55 04.12
07:55 04.12
08:55 04.12
09:55 04.12
10:55 04.12
11:55 04.12
12:55 04.12
13:55 04.12
14:55 04.12
15:55 04.12
16:55 04.12
17:55 04.12
18:55 04.12
19:55 04.12
20:55 04.12
21:55 04.12
22:55 04.12
23:55 04.12
00:55 05.12
01:55 05.12
02:55 05.12
03:55 05.12
Ветер
(напр.,м/с)
Видим. Явления Облачность Т
(С)
Тd
(С)
f
(%)
Тe
(С)
Тes
(С)
Комфортность P
(гПа)
Po
(гПа)
Тmin
(С)
Tmax
(С)
R
(мм)
R24
(мм)
S
(см)
З 6
{12}
16 км 5/5 690 м -1.7 -7.2 66 -8 -8 989.7
З 6
{15}
16 км 5/5 750 м -2.8 -8.3 66 -10 -10 1019.2 991.6 -2.8 +10.0
СЗ 5
{10}
16 км ясно -3.9 -9.4 66 -11 -11 1021.3 993.6
З 6
{12}
16 км ясно -3.9 -10.0 63 -11 -11 1023.3 995.6
З 6
{13}
16 км ясно -3.3 -10.6 57 -10 -10 1025.4 997.6
16 км ясно -2.8 -10.6 55 -3 -2 1026.3 998.6
З 5
{11}
16 км ясно -2.2 -11.1 50 -8 -7 1027.3 999.6
З 4
{11}
16 км ясно -1.7 -11.7 46 -7 -4 1027.9 1000.2 -3.9 -1.1
З 4
{9}
16 км ясно -0.6 -11.7 43 -5 -3 1028.0 1000.5
З 5
{8}
16 км ясно 0.0 -12.2 39 -5 -3 1028.6 1000.9
З 5
{9}
16 км ясно -1.1 -13.3 39 -7 -5 1029.0 1000.9
З 2 16 км ясно -2.2 -13.9 40 -5 -4 1029.2 1000.9
З 2 16 км ясно -3.3 -13.3 46 -7 -7 1030.1 1001.9
З 3 16 км ясно -3.9 -13.3 48 -9 -9 1031.2 1002.5 -4.4
З 2 16 км ясно -5.0 -13.3 52 -9 -9 1031.5 1002.9
нст 3 16 км ясно -5.6 -13.9 52 -11 -11 1031.1 1002.5
З 3 16 км ясно -6.1 -13.9 54 -11 -11 1030.9 1002.2
нст 2 16 км ясно -6.7 -13.9 57 -11 -11 1030.5 1001.9
З 3 16 км ясно -6.7 -13.9 57 -12 -12 1030.2 1001.5
З 3 16 км ясно -6.7 -13.9 57 -12 -12 1029.5 1000.9 -7.2 -3.9
нст 3 16 км ясно -6.7 -13.9 57 -12 -12 1028.5 999.9
нст 2 16 км ясно -6.7 -13.9 57 -11 -11 1027.8 999.2
ЮЗ 5 16 км ясно -6.7 -13.9 57 -14 -14 1026.6 998.2
ЮЗ 5 16 км ясно -7.2 -13.3 62 -14 -14 1025.7 997.2
ЮЗ 5 16 км ясно -6.1 -13.3 57 -13 -13 1025.3 996.9
ЮЗ 5 16 км ясно -6.1 -12.8 59 -13 -13 1024.6 995.9 -7.2 -5.6
ЮЗ 4
{9}
16 км ясно -6.1 -12.8 59 -12 -12 1024.5 995.9
ЮЗ 4
{9}
16 км ясно -4.4 -12.2 54 -10 -10 1024.4 995.9
ЮЗ 5
{10}
16 км ясно -2.2 -11.7 48 -8 -8 1023.3 994.9
З 4
{8}
16 км ясно -1.1 -11.7 44 -6 -5 1023.7 995.3
ЮЗ 5
{9}
16 км ясно +0.6 -10.6 43 -4 -3 1022.5 994.3
ЮЗ 6
{10}
16 км ясно +2.2 -9.4 42 -3 -2 1020.6 992.6 -6.7 +2.2
ЮЗ 6
{11}
16 км ясно +3.3 -10.0 37 -1 0 1020.3 992.3
ЮЗ 8
{11}
16 км ясно +3.9 -9.4 37 -1 -1 1019.2 991.3
ЮЗ 6
{11}
16 км ясно +3.9 -9.4 37 -1 0 1019.1 991.0
ЮЗ 4 16 км ясно +2.2 -8.9 44 -2 -1 1018.4 990.3
ЮЗ 4 16 км ясно 0.0 -8.3 54 -5 -5 1017.9 989.7
ЮЗ 3 16 км ясно -0.6 -8.9 53 -5 -5 1017.6 989.3 -1.1 +4.4
ЮЗ 4 16 км ясно -2.2 -8.9 60 -8 -8 1017.6 989.3
ЮЗ 4 16 км ясно -2.2 -9.4 58 -8 -8 1016.8 988.7
ЮЗ 6 16 км ясно -1.1 -8.9 55 -7 -7 1016.2 988.3
ЮЗ 7 16 км ясно -0.6 -8.3 56 -7 -7 1015.7 988.0
ЮЗ 7 16 км ясно 0.0 -8.3 54 -6 -6 1015.1 987.4
ЮЗ 7 16 км ясно -0.6 -8.3 56 -7 -7 1014.6 987.0 -3.3
ЮЗ 6 16 км ясно -1.1 -7.8 60 -8 -8 1014.3 986.7
ЮЗ 5 16 км ясно -0.6 -7.8 58 -6 -6 1013.8 986.4
ЮЗ 5 16 км ясно -0.6 -7.8 58 -6 -6 1013.5 986.0
ЮЗ 5 16 км ясно -0.6 -7.2 61 -6 -6 1012.6 985.0
Местоположение метеостанции Waukegan Regional Airport: широта 42.4167 долгота -87.8667 высота над уровнем моря 222 м.
В архиве по умолчанию представлена погода в Чикаго / Уокеган за последние 1-2 суток. Обновление информации о фактической погоде в базе происходит ежечасно! Архивные данные за месяц целиком и за предыдущие месяцы Вы можете получить, выбрав интересующий диапазон дат из раскрывающегося списка и нажав кнопку "Ввод!".
Внимание! Архив погоды МЕТАР в базе сайта по станциям, не включенным в климатический монитор, хранится не более 60 дней. Нет смысла пытаться выбрать более раннюю дату.
*Определитесь, кто Вы:
Внимание! Время в таблицах - местное (без учета летнего времени). Для получения всемирного времени необходимо вычесть поправку, которая равна -6 ч.
Смотрите также архив погоды в соседних городах и на ближайших метеорологических станциях:
Партнеры нашего сайта:      
Пояснения к столбцам:
  • Ветер - указаны скорость ветра в м/с - средняя за 10 мин, порывы в срок и между сроками (в фигурных скобках) и направление, откуда дует ветер: С - северный,
  • СВ - северо-восточный, В - восточный, ЮВ - юго-восточный, Ю - южный, ЮЗ - юго-западный, З - западный, СЗ - северо-западный.
  • Видимость - горизонтальная дальность видимости в метрах или километрах. При видимости от 1 до 10 км при отсутствии осадков обычно наблюдается дымка, при ухудшении видимости до 1 км и менее - туман. В сухую погоду видимость может ухудшаться дымом, пылью или мглою.
  • Явления - указаны атмосферные явления, наблюдавшиеся в срок или в последний час перед сроком; фигурными скобками обозначены явления, наблюдавшиеся между сроками (за 1-3 часа до срока); квадратными скобками обозначены град или гололедные отложения с указанием их диаметра в мм.
  • Облачность - указаны через наклонную черту общая и нижняя облачность в баллах и высота нижней границы облаков в метрах; квадратными скобками обозначены формы облаков: Ci - перистые, Cs - перисто-слоистые, Cc - перисто-кучевые, Ac - высококучевые, As - высокослоистые, Sc - слоисто-кучевые, Ns - слоисто-дождевые, Cu - кучевые, Cb - кучево-дождевые. Подробнее классификацию облаков см. в Атласе облаков (PDF).
  • T - Температура воздуха - температура, измеренная на высоте 2 м над землей.
  • Td - Температура точки росы - температура, при понижении до которой содержащийся в воздухе водяной пар достигнет насыщения.
  • f - Относительная влажность воздуха - влажноcть воздуха, измеренная на высоте 2 м над землей.
  • Te - Эффективная температура - температура, которую ощущает одетый по сезону человек в тени. Характеристика душности погоды. При расчете учитывается влияние влажности воздуха и скорости ветра на теплоощущения человека.
  • Tes - Эффективная температура на солнце - температура, которую ощущает человек, с поправкой на солнечный нагрев. Характеристика знойности погоды. Зависит от высоты солнца над горизонтом, облачности и скорости ветра. Ночью, в пасмурную погоду, а также при ветре 12 м/с и более поправка равна нулю.
  • P - Атмосферное давление - приведенное к уровню моря атмосферное давление.
  • Po - Атмосферное давление - измеренное на уровне метеостанции атмосферное давление.
  • Tmin - Минимальная температура - минимум температуры воздуха на высоте 2 м над землей.
  • Tmax - Максимальная температура - максимум температуры воздуха на высоте 2 м над землей.
  • R - Количество осадков - Количество выпавших осадков за период времени, мм. При наведении курсора мыши на число - период времени, за который выпало указанное количество осадков.
  • R24 - Количество осадков - Количество выпавших осадков за 24 часа, мм.
  • S - Снежный покров - Высота снежного покрова, см. При наведении курсора мыши на число - состояние снежного покрова и степень покрытия местности в баллах.